Погода в Куликово

Россия / Омская область     55°02′46″N   74°27′17″E
темп.,
°C
ветер,
м/с
пор.,
м/с
влажн.,
%
обл.,
%
осадки,
мм/ч
давл.,
гПа
погр.,
м
14 мая, пт
пт1400:00+11ссв488299 0.0 1021284
03:00+9с348860 0.0 102354
06:00+8с37927 0.0 1025173
09:00+13с45634 0.0 1026843
12:00+17с453184 0.0 10261229
15:00+19ссз4525100 0.0 10261349
18:00+20ссз34236 0.0 10261402
21:00+16зсз22365 0.0 102611
15 мая, сб
сб1500:00+14юз33415 0.0 102539
03:00+13юз484613 0.0 1024112
06:00+13юз51250100 0.0 1023211
09:00+21зюз6103666 0.1 1022476
12:00+25з6834100 0.3 1020990
15:00+29зсз792712 0.0 10183382
18:00+29зсз78285 0.0 10173004
21:00+23юз444192 0.0 101743
16 мая, вс
вс1600:00+19зюз514556 0.7 1016259
03:00+19з61351100 0.0 1015286
06:00+17з41265100 0.3 1015267
09:00+22сз58495 0.1 1016512
12:00+26сз573847 0.1 10151499
15:00+28сз673279 0.0 10152286
18:00+27сз573144 0.0 10152083
21:00+22зюз224643 0.0 101414
17 мая, пн
пн1700:00+19ююз115734 0.3 101511
03:00+18з33645 0.0 101433
06:00+18зсз375684 0.0 1015117
09:00+25зсз59365 0.0 1015423
12:00+31сз7122119 0.0 10143301
15:00+31сз810195 0.0 10143664
18:00+30зсз69235 0.0 10133452
21:00+24з45355 0.0 101250
18 мая, вт
вт1800:00+21зюз49410 0.0 1011140
03:00+20зсз5124419 0.0 1011301
06:00+18з4105522 0.0 1010194
09:00+23сз584199 0.0 1010629
12:00+27зсз483395 0.0 10091719
15:00+29зсз71128100 0.0 10083486
18:00+27зсз8132819 0.0 10063094
21:00+18ссв61260100 0.1 1008481